sat.trackr.live / text

‹ back to catalog

GLOBALSTAR M082

NORAD 38042 · 2011-080C

PAYLOAD ACTIVE UNKNOWN

§ Identity

Operator
Country
GLOB
Launch date
2011-12-28
Launch site
TYMSC
Launch vehicle
Mass (kg)
RCS (m²)
4.69

Purposes: comms

External: N2YO · Heavens-Above · Gunter

§ Orbital elements

Epoch: 2026-05-25T03:44:41.823168Z

Period
114.08 min
Inclination
52.0094°
Eccentricity
0.0000393
Mean motion
12.62269415 rev/d
Perigee alt
1,413.3 km
Apogee alt
1,413.9 km
Semi-major
7,791.7 km
B*
1.5101e-5
RAAN
44.6042°
Arg perigee
75.3454°
Mean anomaly
89.3088°
Rev number
66,668

§ Raw data

GLOBALSTAR M0821 38042U 11080C   26145.15603962 -.00000101  00000+0  15101-4 0  99912 38042  52.0094  44.6042 0000393  75.3454  89.3088 12.62269415666688

JSON: /api/v1/satellites/38042 · /tle

For live sub-satellite position, see the globe view (requires WebGL).

§ Visibility from observer

Set your observer location to see the next 7 days of passes ≥ 10°. The values pass through the URL so the page stays shareable.

No JS? Fill the form by hand. The geolocation button needs JavaScript.